Home > Weather > Kassel > Past weeks

Flag for Germany Past Weather in Kassel, Hesse, Germany — Yesterday and Last 2 Weeks

Now
73 °F

Scattered clouds.


Feels Like: 77 °F
Forecast: 57 / 71 °F
Wind: 15 mph from Northwest

Location: Kassel / Calden

Current Time: Jul 27, 2016 at 5:30:06 PM

Latest Report: Jul 27, 2016 at 4:50 PM


Visibility: N/A

Pressure: 29.98 "Hg

Humidity: 57%

Dew Point: 57 °F

Location of KasselLocation

Past Weather in Kassel — Graph

°F

Kassel Temperature Yesterday

Maximum temperature yesterday: 75 °F (at 12:50 PM)
Minimum temperature yesterday: 63 °F (at 7:20 AM)
Average temperature yesterday: 71 °F

High & Low Weather Summary for the Past Weeks

 TemperatureHumidityPressure
High90 °F (Jul 20, 4:50 PM)100% (Jul 13, 6:50 PM)30.27 "Hg (Jul 13, 6:50 PM)
Low52 °F (Jul 14, 7:20 AM)31% (Jul 20, 2:50 PM)29.89 "Hg (Jul 12, 3:20 PM)
Average70 °F68%30.09 "Hg
* Reported Jul 12 3:20 PM — Jul 27 3:50 PM, Kassel, Weather by CustomWeather, © 2016

Note: Actual official high and low records may vary slightly from our data, if they occured in-between our weather recording intervals... More about our weather records

Advertising

Kassel Weather History for the Previous 24 Hours

Scroll right to see more
 ConditionsComfort  
Time TempWeatherWind HumidityBarometerVisibility
3:50 PM
Wed, Jul 27
75 °FScattered clouds.7 mph50%29.98 "HgN/A
3:20 PM75 °FScattered clouds.5 mph50%29.98 "HgN/A
2:50 PM75 °FScattered clouds.9 mph54%30.01 "HgN/A
2:20 PM75 °FScattered clouds.6 mph54%30.01 "HgN/A
1:50 PM73 °FScattered clouds.8 mph57%30.01 "HgN/A
1:20 PM72 °FScattered clouds.8 mph61%30.01 "HgN/A
12:50 PM73 °FScattered clouds.5 mph57%30.04 "HgN/A
12:20 PM72 °FScattered clouds.7 mph61%30.04 "HgN/A
11:50 AM70 °FPassing clouds.6 mph64%30.04 "HgN/A
11:20 AM68 °FPassing clouds.3 mph73%30.07 "HgN/A
10:50 AM66 °FPassing clouds.5 mph83%30.07 "HgN/A
10:20 AM64 °FPartly sunny.3 mph88%30.07 "HgN/A
9:50 AM63 °FLight rain. Partly sunny.3 mph94%30.07 "HgN/A
9:20 AM63 °FPassing clouds.6 mph88%30.07 "HgN/A
8:50 AM63 °FPassing clouds.5 mph88%30.04 "HgN/A
8:20 AM63 °FClear.3 mph88%30.04 "Hg6 mi
7:50 AM63 °FPassing clouds.5 mph94%30.04 "Hg6 mi
7:20 AM61 °FPassing clouds.3 mph100%30.04 "Hg5 mi
9:20 PM
Tue, Jul 26
68 °FPartly sunny.10 mph78%30.12 "HgN/A
8:50 PM68 °FBroken clouds.6 mph83%30.12 "HgN/A
8:20 PM68 °FLight rain. Broken clouds.5 mph83%30.09 "HgN/A
7:50 PM72 °FBroken clouds.7 mph65%30.12 "HgN/A
7:20 PM73 °FBroken clouds.9 mph61%30.09 "HgN/A
6:50 PM73 °FBroken clouds.9 mph61%30.09 "HgN/A
6:20 PM73 °FBroken clouds.10 mph61%30.09 "HgN/A
5:50 PM75 °FBroken clouds.12 mph57%30.09 "HgN/A
5:20 PM75 °FScattered clouds.7 mph57%30.12 "HgN/A
Weather by CustomWeather, © 2016

See weather overviewHow to use our weather pages